Regional Weather Roundup
Issued by NWS

Home | Current Version | Previous Version | Graphics & Text | Print | Product List | Glossary On
Versions: 1 2 3 4 5 6 7 8 9 10 11 12 13 14 15 16 17 18 19 20 21 22 23 24 25 26 27
000
ASUS45 KBOU 191810
RWRCO

WEATHER ROUNDUP FOR COLORADO
NATIONAL WEATHER SERVICE DENVER/BOULDER CO
1100 AM MST SUN NOV 19 2017

NOTE: "FAIR" INDICATES FEW OR NO CLOUDS BELOW 12000 FEET WITH NO
SIGNIFICANT WEATHER AND/OR OBSTRUCTIONS TO VISIBILITY.

COZ001>005-013-030-031-191900-
...NORTHWEST COLORADO...

CITY           SKY/WX    TMP DP  RH WIND       PRES   REMARKS
CRAIG          FAIR      27  17  66 SW3       30.29F
HAYDEN         FAIR      28  16  60 SE7       30.29F WCI  21
MEEKER         FAIR      26  18  71 CALM      30.29F
RABBIT EARS PA FAIR      28  14  54 SW5       30.28F WCI  23
STEAMBOAT SPGS FAIR      24  15  69 CALM      30.28F
WALDEN         FAIR      30  10  43 S12       30.26F WCI  21
$$

COZ006>008-011-191900-
...WEST CENTRAL VALLEYS...

CITY           SKY/WX    TMP DP  RH WIND       PRES   REMARKS
GRAND JUNCTION FAIR      37  17  44 CALM      30.36F
MONTROSE       FAIR      35  19  52 NW3       30.36F
EAGLE          NOT AVBL
RIFLE          FAIR      29  17  61 CALM      30.35F
DELTA          FAIR      36  17  47 SE5       30.36F
NUCLA          FAIR      32  12  43 CALM      30.38F
$$

COZ017>023-064>068-191900-
...SOUTHWEST COLORADO...

CITY           SKY/WX    TMP DP  RH WIND       PRES   REMARKS
DURANGO        FAIR      39  15  37 CALM      30.31F
CORTEZ         FAIR      40  12  32 S3        30.33F
PAGOSA SPRINGS FAIR      41  13  31 CALM      30.32F
TELLURIDE      FAIR      40  10  30 CALM      30.35F
WOLF CREEK PAS FAIR      28   0  29 S6        30.42F WCI  22
$$

COZ009-010-012-014-032>034-037-058>063-191900-
...CENTRAL COLORADO...

CITY           SKY/WX    TMP DP  RH WIND       PRES   REMARKS
ASPEN          FAIR      29  19  66 NW5       30.29F WCI  24
BUENA VISTA    FAIR      37   3  24 CALM      30.29F
COPPER MTN     FAIR      30  -6  21 W6        30.33F WCI  24
BERTHOUD PASS  FAIR      19   9  63 NW29G36   30.29F WCI   1
COTTONWOOD PAS FAIR      37  10  32 SW7       30.31F
GUNNISON       FAIR      23  11  60 NE3       30.41F
KREMMLING      FAIR      30  18  59 CALM      30.35F
LEADVILLE      FAIR      31   5  33 CALM      30.29F
MONARCH PASS   FAIR      23   0  36 W24G30    30.45S WCI   7
SALIDA         FAIR      39  11  31 N7        30.35F
SUNLIGHT       FAIR      30   0  27 SW10      30.36F WCI  21
WILKERSON PASS FAIR      30  -6  21 W13G28    30.30F WCI  20
$$

COZ069>075-191900-
...SAN LUIS VALLEY/SANGRE DE CRISTO MOUNTAINS...

CITY           SKY/WX    TMP DP  RH WIND       PRES   REMARKS
ALAMOSA        FAIR      35  13  40 CALM      30.33F
DEL NORTE      FAIR      37   6  26 CALM      30.34F
LA VETA PASS   FAIR      32   9  37 MISG        N/A
SAGUACHE       FAIR      37   5  25 NW5       30.33F
$$

COZ035-036-038>040-191900-
...NORTHERN COLORADO FRONT RANGE...

CITY           SKY/WX    TMP DP  RH WIND       PRES   REMARKS
DENVER INTL AP PTSUNNY   54  14  20 SW12      30.10F
DMNS CITY PARK   N/A     55   9  16 SE9G15    30.08F
AURORA         PTSUNNY   53  13  20 S10       30.11F
FRONT RANGE AP PTSUNNY   55  18  22 S17       30.11F
ERIE MUNI ARPT FAIR      44  22  41 CALM      30.15F
BOULDER MUN AP FAIR      45  21  39 NE5       30.09F
CENTENNIAL     PTSUNNY   53  11  18 SW12      30.11F
BROOMFIELD     PTSUNNY   48  18  29 SE6       30.10F
FORT COLLINS   FAIR      44  19  36 CALM      30.10F
LONGMONT       FAIR      50  20  31 CALM      30.11F
$$

COZ041-046-047-076>085-087-088-191900-
...PIKES PEAK/PALMER DIVIDE AND SOUTHERN FOOTHILLS...

CITY           SKY/WX    TMP DP  RH WIND       PRES   REMARKS
COLO. SPRINGS  PTSUNNY   51  13  21 SW9       30.16F
A. F. ACADEMY  FAIR      52   6  15 S6        30.15F
SCHRIEVER AFB  FAIR      51   4  14 S6        30.15F
CHEYENNE MTN   FAIR      48  15  27 CALM      30.11F
ELLICOTT       NOT AVBL
FALCON         FAIR      54   1  11 S7G16     30.17F
FORT CARSON    FAIR      50  11  20 E3        30.15F
LIMON          FAIR      52  19  27 CALM      30.13F
MONUMENT HILL  FAIR      48   9  20 SW12      30.17F
CANON CITY     FAIR      57  10  15 W13       30.16F
WALSENBURG     FAIR      59  10  14 SW12G20   30.17F
TRINIDAD       FAIR      51  14  22 VRB3      30.19F
$$

COZ042>045-048>051-090-091-191900-
...NORTHEAST COLORADO...

CITY           SKY/WX    TMP DP  RH WIND       PRES   REMARKS
GREELEY ARPT   FAIR      42  22  44 CALM      30.11F
AKRON          FAIR      46  16  30 SW9       30.10F
BURLINGTON     FAIR      53  18  25 SW13      30.13F
WRAY           NOT AVBL
YUMA           FAIR      52  18  25 W9        30.09F
STERLING       FAIR      41  23  48 S8        30.09F
HOLYOKE        FAIR      59  18  20 SW10      30.08F
FORT MORGAN    FAIR      42  20  41 SW8       30.11F
$$

COZ086-089-092>099-191900-
...SOUTHEAST COLORADO...

CITY           SKY/WX    TMP DP  RH WIND       PRES   REMARKS
PUEBLO         FAIR      48  18  30 S5        30.16F
LA JUNTA       FAIR      48  25  40 W8        30.16F
LAMAR          FAIR      50  21  32 W8        30.15F
SPRINGFIELD      N/A     57  20  23 S12       30.16F
$$




USA.gov is the U.S. government's official web portal to all federal, state and local government web resources and services.